Location: Chateh
(58.6667°N, 118.6000°W)
Time: 10:30:24
(UTC+00:00)

O/OREOS (USA 219) - Pass Details

Date: 12 December 2023
Orbit: 621 x 646 km, 72.0° (Epoch: 22 May)

Event Time Altitude Azimuth Distance (km) Brightness Sun altitude
Exits shadow 13:51:02 22° 342° (NNW) 1,374 ? -19.2°
Maximum altitude 13:53:33 44° 43° (NE) 876 ? -18.9°
Drops below altitude 10° 13:57:53 10° 117° (ESE) 2,015 ? -18.3°
Sets 14:00:15 0° 124° (ESE) 2,924 ? -18.0°
